This is the latest recevied weather packets stored in our database for station/object DH1NAI-6. If no packets are shown the sender has not sent any weather packets the latest 10 day(s).
| Time | Temp. | Humidity | Pressure | Rain* | Wind** | Luminosity | Snow |
|---|---|---|---|---|---|---|---|
| 1777831314 | 19.44° C | 49% | 1010.5 hPa | 0 mm | - | 4 W/m² | - |
| 1777830707 | 19.44° C | 48% | 1010.6 hPa | 0 mm | - | 6 W/m² | - |
| 1777830092 | 20° C | 47% | 1010.5 hPa | 0 mm | - | 7 W/m² | - |
| 1777829491 | 20° C | 47% | 1010.4 hPa | 0 mm | - | 9 W/m² | - |
| 1777828882 | 20.56° C | 45% | 1010.6 hPa | 0 mm | - | 12 W/m² | - |
| 1777828258 | 20.56° C | 45% | 1010.6 hPa | 0 mm | - | 15 W/m² | - |
| 1777827634 | 21.11° C | 44% | 1010.6 hPa | 0 mm | - | 19 W/m² | - |
| 1777827026 | 21.67° C | 43% | 1010.5 hPa | 0 mm | - | 24 W/m² | - |
| 1777826419 | 21.67° C | 41% | 1010.5 hPa | 0 mm | - | 27 W/m² | - |
| 1777825810 | 22.22° C | 41% | 1010.6 hPa | 0 mm | - | 35 W/m² | - |
| 1777825203 | 22.78° C | 40% | 1010.2 hPa | 0 mm | - | 37 W/m² | - |
| 1777824594 | 22.78° C | 40% | 1010.4 hPa | 0 mm | - | 55 W/m² | - |
| 1777823987 | 23.33° C | 39% | 1010 hPa | 0 mm | - | 72 W/m² | - |
| 1777823372 | 23.33° C | 38% | 1010.2 hPa | 0 mm | - | 87 W/m² | - |
| 1777822771 | 23.89° C | 37% | 1010.4 hPa | 0 mm | - | 92 W/m² | - |
| 1777822162 | 24.44° C | 38% | 1010.2 hPa | 0 mm | - | 107 W/m² | - |
| 1777821538 | 24.44° C | 33% | 1010.5 hPa | 0 mm | - | 94 W/m² | - |
| 1777820914 | 24.44° C | 35% | 1010.4 hPa | 0 mm | - | 113 W/m² | - |
| 1777820306 | 24.44° C | 35% | 1010.7 hPa | 0 mm | - | 121 W/m² | - |
| 1777819699 | 24.44° C | 34% | 1010.6 hPa | 0 mm | - | 113 W/m² | - |
| 1777819090 | 25° C | 35% | 1010.6 hPa | 0 mm | - | 48 W/m² | - |
| 1777818483 | 23.89° C | 34% | 1010.9 hPa | 0 mm | - | 114 W/m² | - |
| 1777817874 | 24.44° C | 35% | 1010.8 hPa | 0 mm | - | 113 W/m² | - |
| 1777817267 | 25° C | 33% | 1010.9 hPa | 0 mm | - | 147 W/m² | - |
| 1777816651 | 25° C | 35% | 1010.9 hPa | 0 mm | - | 146 W/m² | - |
* Rain latest hour (hover to see other rain measurements)
** Current wind speed in m/s (hover to see current wind gust speed)